Home   Weather   Luton   Past weeks

Flag for United Kingdom Past Weather in Luton, England, United Kingdom — Yesterday and Last 2 Weeks

Now
46 °F

Mostly cloudy.


Feels Like: 42 °F
Forecast: 39 / 51 °F
Wind: 9 mph from West

Location: Luton Airport

Current Time: Apr 27, 2017 at 7:57:38 pm

Latest Report: Apr 27, 2017 at 7:20 pm


Visibility: N/A

Pressure: 30.01 "Hg

Humidity: 87%

Dew Point: 43 °F

Location of LutonLocation

Past Weather in Luton — Graph

°F

Luton Temperature Yesterday

Maximum temperature yesterday: 48 °F (at 2:50 pm)
Minimum temperature yesterday: 34 °F (at 12:50 am)
Average temperature yesterday: 39 °F

High & Low Weather Summary for the Past Weeks

 TemperatureHumidityPressure
High59 °F (Apr 23, 2:50 pm)100% (Apr 26, 4:20 am)30.63 "Hg (Apr 26, 4:20 am)
Low32 °F (Apr 25, 4:20 am)33% (Apr 19, 4:50 pm)29.86 "Hg (Apr 25, 5:20 am)
Average46 °F73%30.21 "Hg
* Reported Apr 12 6:20 pm — Apr 27 6:20 pm, Luton, Weather by CustomWeather, © 2017

Note: Actual official high and low records may vary slightly from our data, if they occured in-between our weather recording intervals... More about our weather records

Advertising

Luton Weather History for the Previous 24 Hours

Scroll right to see more
 ConditionsComfort  
Time TempWeatherWind HumidityBarometerVisibility
6:20 pm
Thu, Apr 27
46 °FPartly sunny.8 mph87%30.01 "HgN/A
5:50 pm45 °FBroken clouds.10 mph93%30.01 "HgN/A
5:20 pm46 °FLight rain. Partly sunny.12 mph82%30.01 "HgN/A
4:50 pm46 °FLight rain. Broken clouds.12 mph87%30.01 "HgN/A
4:20 pm46 °FLight rain. Overcast.13 mph82%30.04 "HgN/A
3:50 pm46 °FLight rain. Partly sunny.15 mph76%30.04 "HgN/A
3:20 pm48 °FLight rain. Mostly cloudy.15 mph71%30.04 "HgN/A
2:50 pm48 °FLight rain. Mostly cloudy.15 mph71%30.04 "HgN/A
2:20 pm48 °FLight rain. Partly sunny.15 mph71%30.04 "HgN/A
1:50 pm46 °FLight rain. Overcast.17 mph71%30.07 "HgN/A
1:20 pm46 °FOvercast.15 mph66%30.07 "HgN/A
12:50 pm46 °FOvercast.14 mph66%30.07 "HgN/A
12:20 pm48 °FMostly cloudy.12 mph58%30.07 "HgN/A
11:50 am46 °FPartly sunny.12 mph66%30.07 "HgN/A
11:20 am48 °FPassing clouds.12 mph62%30.07 "HgN/A
10:50 am46 °FPassing clouds.12 mph62%30.09 "HgN/A
10:20 am45 °FSunny.10 mph71%30.09 "Hg10 mi
9:50 am43 °FQuite cool.12 mph76%30.09 "HgN/A
9:20 am41 °FQuite cool.10 mph76%30.09 "HgN/A
8:50 am41 °FQuite cool.10 mph76%30.09 "HgN/A
8:20 am41 °FQuite cool.10 mph76%30.09 "HgN/A
7:50 am39 °FChilly.12 mph81%30.09 "HgN/A
7:20 am36 °FChilly.9 mph87%30.09 "HgN/A
6:50 am36 °FChilly.9 mph87%30.09 "HgN/A
6:20 am34 °FChilly.8 mph93%30.09 "HgN/A
5:50 am34 °FChilly.7 mph87%30.09 "HgN/A
5:20 am32 °FChilly.8 mph100%30.09 "Hg6 mi
4:50 am34 °FChilly.8 mph93%30.09 "Hg6 mi
4:20 am34 °FChilly.9 mph93%30.09 "HgN/A
3:50 am34 °FChilly.8 mph93%30.09 "HgN/A
3:20 am34 °FChilly.8 mph93%30.09 "HgN/A
2:50 am34 °FChilly.8 mph93%30.09 "HgN/A
2:20 am34 °FChilly.8 mph93%30.12 "HgN/A
1:50 am34 °FChilly.7 mph100%30.12 "HgN/A
1:20 am34 °FChilly.8 mph93%30.12 "HgN/A
12:50 am34 °FChilly.8 mph93%30.12 "HgN/A
12:20 am34 °FChilly.7 mph100%30.12 "HgN/A
11:50 pm
Wed, Apr 26
36 °FChilly.8 mph93%30.12 "HgN/A
11:20 pm36 °FChilly.8 mph93%30.12 "HgN/A
10:50 pm36 °FChilly.6 mph93%30.12 "HgN/A
10:20 pm36 °FChilly.6 mph93%30.12 "HgN/A
9:50 pm36 °FChilly.3 mph93%30.12 "HgN/A
9:20 pm36 °FLight rain. Passing clouds.5 mph93%30.12 "HgN/A
8:50 pm39 °FLight rain. Passing clouds.10 mph81%30.12 "HgN/A
8:20 pm39 °FPassing clouds.8 mph81%30.09 "HgN/A
7:50 pm39 °FChilly.6 mph75%30.09 "HgN/A
7:20 pm41 °FQuite cool.8 mph76%30.09 "HgN/A
Weather by CustomWeather, © 2017

See weather overviewHow to use our weather pages